Location: Bronschhofen
(47.4788°N, 9.0353°E)
Time: 03:55:50
(UTC+00:00)

Daily predictions for brighter satellites

Satellite Brightness Start Highest point End
(mag) Time Altitude Azimuth Time Altitude Azimuth Time Altitude Azimuth
Cosmos 1674 Rocket 4.4 00:06:25 35° ESE 00:07:18 39° E 00:11:21 10° NNE
Okean 1-7 4.5 00:06:47 24° W 00:07:46 27° WNW 00:11:31 10° NNW
Cosmos 2322 Rocket 2.8 00:05:15 29° WSW 00:07:47 49° NW 00:13:15 10° NNE
USA 267 4.3 00:10:31 25° WSW 00:10:31 25° WSW 00:15:28 10° WNW
Cosmos 1818 3.5 00:05:03 10° NW 00:10:33 86° SW 00:12:49 37° SSE
Cosmos 1242 Rocket 2.6 00:07:25 10° N 00:11:01 70° ENE 00:11:04 69° E
ATLAS CENTAUR R/B 1.9 00:08:54 10° NW 00:13:47 69° NE 00:16:20 27° SE
Cosmos 2151 Rocket 3.6 00:10:29 10° N 00:14:53 72° E 00:15:52 51° SE
USA 290 4.2 00:16:07 21° E 00:16:07 21° E 00:18:16 10° NE
EO 1 Delta rocket 4.4 00:14:55 10° NNE 00:19:24 48° E 00:20:52 36° SE
Okean 2 Rocket 3.0 00:16:08 10° N 00:20:41 88° WSW 00:21:36 57° S
Cosmos 372 Rocket 3.9 00:19:41 48° SSW 00:21:06 82° WNW 00:26:18 10° NNE
ADEOS Rocket 3.9 00:20:34 25° WSW 00:21:41 26° W 00:26:26 10° NW
SL-08 R/B 4.4 00:17:19 10° N 00:23:34 82° W 00:26:13 38° S
GP-B 4.1 00:21:31 10° NNE 00:25:42 39° E 00:27:23 28° SE
Cosmos 1953 3.2 00:22:08 10° N 00:26:01 43° ENE 00:27:20 32° ESE
Cosmos 1844 Rocket 3.3 00:21:30 10° NW 00:26:35 36° WSW 00:27:19 35° WSW
Cosmos 1378 Rocket 3.8 00:25:44 46° SSE 00:26:44 59° E 00:31:06 10° NNE
Cosmos 1844 4.2 00:22:20 10° NW 00:27:47 43° WSW 00:28:57 38° SW
Meteor 1-21 4.3 00:26:51 41° SSW 00:28:57 73° WNW 00:34:49 10° N
Cosmos 1937 Rocket 4.0 00:29:41 33° WSW 00:31:37 50° WNW 00:36:46 10° NNE
Cosmos 1417 Rocket 4.5 00:29:51 37° S 00:32:34 84° E 00:38:49 10° N
Cosmos 1758 3.4 00:29:20 10° NNW 00:33:15 56° W 00:33:27 55° WSW
NOSS 3-1 (A) 4.3 00:26:41 10° NW 00:33:59 70° NE 00:42:39 10° SE
Sich 1 Rocket 3.9 00:31:01 10° NNW 00:35:15 48° W 00:35:48 45° WSW
Cosmos 1674 2.6 00:36:19 63° WSW 00:36:34 66° W 00:40:17 10° N
Resurs 1-4 Rocket 2.9 00:31:56 10° NNE 00:36:56 42° E 00:39:18 27° SSE
Cosmos 1470 4.2 00:34:15 10° NW 00:37:14 24° W 00:37:14 24° W
Okean 2 3.6 00:39:06 50° WSW 00:39:42 56° WNW 00:43:44 10° N
CZ-4C R/B 3.1 00:33:33 10° NW 00:40:43 80° NE 00:49:11 10° SE
Cosmos 2219 Rocket 2.1 00:39:12 40° SSW 00:41:19 88° WNW 00:46:57 10° NNE
Cosmos 1707 3.7 00:40:54 33° W 00:41:20 34° WNW 00:44:55 10° N
SL-16 R/B 4.0 00:38:30 11° W 00:42:49 24° NW 00:47:24 10° N
NOSS 3-1 (C) 4.0 00:38:05 10° NW 00:45:31 75° SW 00:54:17 10° SSE
Cosmos 220 Rocket 4.0 00:44:38 51° S 00:45:33 70° ESE 00:49:44 10° NNE
Cosmos 1437 Rocket 2.8 00:41:55 10° N 00:45:43 70° ENE 00:46:36 48° SE
COSMOS 2428 2.7 00:44:03 38° S 00:46:18 75° ESE 00:51:59 10° NNE
ASTEX 1 4.5 00:43:13 10° NNW 00:47:32 32° WNW 00:49:02 26° WSW
ATLAS 3B R/B 3.9 00:41:44 10° WNW 00:47:35 26° WSW 00:48:50 25° SW
Cosmos 1709 Rocket 4.1 00:44:44 10° N 00:50:55 70° E 00:55:03 22° SSE
Meteor 2-12 Rocket 4.4 00:48:24 10° N 00:54:32 84° E 00:58:14 25° SSE
MOZ.5/SAFIR/RUBIN 5/SL-8 3.9 00:53:59 42° SSW 00:55:20 59° W 01:00:01 10° NNW
Cosmos 839 Rocket 4.5 00:49:44 10° NNW 00:56:00 69° NE 01:03:16 10° SE
Cosmos 1626 2.5 00:55:39 43° W 00:56:03 45° WNW 00:59:36 10° N
S3M 4.0 00:54:27 32° SSW 00:57:36 80° W 01:04:01 10° N
Cosmos 2237 Rocket 3.2 00:57:20 22° SSE 01:00:17 37° ESE 01:05:29 10° NE
ADEOS II 3.1 01:00:28 10° NNE 01:05:24 40° E 01:08:45 19° SSE
Cosmos 1025 Rocket 4.4 01:05:05 17° SE 01:07:42 32° E 01:11:34 10° NNE
Cosmos 2150 Rocket 4.2 01:06:08 31° S 01:08:35 63° ESE 01:13:42 10° NNE
Cosmos 1300 2.6 01:06:39 10° N 01:10:28 82° E 01:11:51 37° SSE
Cosmos 405 Rocket 3.0 01:10:48 43° WSW 01:11:31 51° WNW 01:15:11 10° N
Okean 1 Rocket 3.3 01:11:06 10° NNW 01:15:23 53° W 01:16:47 37° SSW
IDEFIX/ARIANE 42P 3.5 01:12:07 10° NNE 01:17:07 42° E 01:20:55 16° SSE
Cosmos 2360 Rocket 3.8 01:13:37 13° W 01:17:36 26° NW 01:22:19 10° N
Cosmos 1238 Rocket 4.2 01:15:49 10° NW 01:17:10 16° WNW 01:17:10 16° WNW
ATLAS 5 CENTAUR R/B 3.1 01:08:23 10° NW 01:18:17 42° WSW 01:19:49 31° SSW
Cosmos 1461 2.8 01:16:33 10° NW 01:20:40 66° WSW 01:23:29 20° SSE
Meteor 2-10 Rocket 3.7 01:17:05 10° N 01:22:54 88° ENE 01:27:14 18° S
CZ-2D R/B 2.1 01:22:05 10° NNE 01:27:32 78° WNW 01:30:34 27° SSW
Cosmos 2278 Rocket 2.1 01:22:40 10° NNW 01:28:22 78° WSW 01:34:02 10° SSE
Meteor 2-5 Rocket 4.2 01:27:36 17° S 01:32:02 59° E 01:37:40 10° NNE
SME Rocket 3.8 01:32:57 28° WSW 01:33:43 31° W 01:37:34 10° NNW
Cosmos 1867 3.6 01:30:59 26° SW 01:34:07 77° NW 01:39:39 10° NE
Cosmos 1048 Rocket 4.4 01:29:21 10° NW 01:34:12 41° WSW 01:36:29 26° SSW
USA 305 4.3 01:33:23 21° SSE 01:34:49 26° SE 01:38:18 10° ENE
Gblst 52 Del rocket 4.4 01:30:00 13° W 01:35:18 71° NNW 01:40:48 10° ENE
Meteor 1-24 Rocket 4.3 01:31:03 15° SSE 01:35:41 55° E 01:41:06 10° NNE
Cosmos 2333 Rocket 3.5 01:33:18 15° WSW 01:37:11 31° NW 01:42:12 10° NNE
Cosmos 1125 Rocket 3.5 01:37:42 26° SW 01:40:38 70° WNW 01:45:51 10° NNE
SL-16 R/B 2.6 01:37:47 18° S 01:42:23 59° WSW 01:48:33 10° NNW
YAOGAN 11 4.1 01:39:55 23° S 01:42:32 61° WSW 01:46:58 10° NNW
ERBS 4.5 01:42:06 12° SE 01:42:59 13° SE 01:44:32 10° E
SL-16 R/B 3.8 01:38:34 10° SSE 01:43:18 28° ESE 01:48:04 10° NE
Cosmos 1943 Rocket 3.3 01:39:48 10° NNW 01:45:16 46° NE 01:50:43 10° SE
EO 1 Del DPAF 3.1 01:43:11 10° NNE 01:46:43 73° ESE 01:48:39 25° S
CRYOSAT 2 4.4 01:43:57 14° S 01:48:10 82° E 01:53:05 10° N
Cosmos 2298 Rocket 4.3 01:45:28 23° SW 01:48:39 60° WNW 01:53:55 10° NNE
USA 290 3.9 01:48:51 19° W 01:50:01 24° WNW 01:52:44 10° N
Cosmos 1980 3.7 01:46:55 22° SSW 01:50:39 88° WNW 01:56:22 10° NNE
ATLAS CENTAUR R/B 3.1 01:48:40 10° WNW 01:52:05 19° WSW 01:52:17 19° WSW
AQUA 4.0 01:51:43 10° N 01:56:27 62° WNW 01:59:34 21° SSW
USA 229 DEB 4.0 01:51:08 10° NW 01:58:21 59° WSW 02:06:02 10° SSE
USA 229 4.0 01:51:14 10° NW 01:58:27 59° WSW 02:06:07 10° SSE
OE (NEXTSAT) 4.4 01:57:23 19° W 01:59:32 49° SSW 02:02:46 10° ESE
Cosmos 1455 Rocket 3.3 01:55:35 10° NNW 01:59:55 52° W 02:03:00 18° SSW
Cosmos 1953 4.1 01:59:22 10° NW 02:01:58 17° W 02:02:56 16° WSW
IRS-1D 4.0 01:57:00 10° NNE 02:02:20 63° ESE 02:07:26 11° S
NOSS 2-2 (C) 4.5 02:00:37 10° NW 02:05:42 54° SW 02:12:47 10° SSE
Helios 1A 3.1 02:02:52 16° S 02:06:05 53° W 02:10:13 10° NNW
Cosmos 1536 Rocket 4.4 02:01:59 10° SSE 02:06:15 48° E 02:10:31 10° NNE
MSX 3.9 02:00:41 10° NNE 02:06:28 82° ESE 02:11:46 13° SSW
Cosmos 371 Rocket 3.9 02:04:37 19° SW 02:07:50 45° WNW 02:12:32 10° NNE
NPP 4.3 02:04:09 10° N 02:09:13 43° WNW 02:13:05 17° SW
ALOS 4.3 02:07:19 10° NE 02:11:10 25° E 02:14:59 10° SSE
Meteor 1-28 Rocket 3.8 02:10:52 19° SSW 02:13:09 38° W 02:16:41 10° NNW
Cosmos 1975 Rocket 3.7 02:11:29 19° SW 02:14:18 42° WNW 02:18:33 10° N
USA 306 3.3 02:13:37 18° SSW 02:16:25 49° SE 02:20:28 10° ENE
USA 307 3.5 02:13:44 18° SSW 02:16:33 43° SE 02:20:32 10° ENE
Resurs 1-4 Rocket 3.2 02:12:02 10° N 02:16:36 31° WNW 02:20:23 14° WSW
Cosmos 1271 Rocket 3.6 02:16:03 10° N 02:19:44 49° ENE 02:23:27 10° SSE
COSMOS 2441 4.4 02:19:19 10° NNE 02:24:14 84° WNW 02:28:59 11° SSW
Helios 1B rocket 3.1 02:20:42 10° NNE 02:24:41 51° E 02:28:38 10° S
Cosmos 2074 Rocket 4.1 02:18:57 10° NNW 02:25:09 63° W 02:31:21 10° S
Cosmos 2219 Rocket 4.0 02:22:06 10° W 02:26:06 20° NW 02:30:07 10° N
NOSS 3 (A) 4.3 02:27:13 22° S 02:27:46 30° SE 02:29:18 10° ENE
Cosmos 2228 3.9 02:23:44 10° N 02:28:03 53° ENE 02:32:18 10° SSE
MOS 1 Rocket 4.2 02:26:10 15° SW 02:28:44 25° W 02:32:17 10° NW
CZ-4C R/B 3.7 02:22:37 10° NW 02:29:02 31° WSW 02:36:13 10° S
SeaSat 1 3.8 02:25:38 10° NE 02:30:06 33° ESE 02:34:33 10° S
COSMOS 2428 4.3 02:26:37 10° W 02:31:09 24° NW 02:35:42 10° N
Cosmos 2184 Rocket 4.1 02:26:51 10° NNW 02:33:01 57° W 02:39:04 10° S
CZ-2C R/B 3.7 02:28:59 10° NNE 02:33:53 41° E 02:38:41 10° SSE
Cosmos 304 Rocket 4.5 02:30:28 14° SW 02:34:23 41° WNW 02:38:58 10° N
Cosmos 1269 Rocket 4.2 02:32:23 10° NNW 02:37:31 53° WSW 02:42:37 10° S
Cosmos 1455 2.6 02:38:10 10° NNW 02:41:42 42° W 02:45:11 10° SSW
Cosmos 1610 Rocket 4.5 02:36:07 10° NNW 02:42:17 73° W 02:48:22 10° S
Cosmos 2237 Rocket 3.0 02:39:10 11° WSW 02:44:18 41° NW 02:49:42 10° NNE
ADEOS II 3.1 02:40:21 10° N 02:44:59 32° WNW 02:49:35 10° SW
Cosmos 1544 Rocket 4.4 02:41:17 10° NNW 02:45:17 33° W 02:49:14 10° SSW
Cosmos 1025 Rocket 4.3 02:41:57 11° SW 02:45:20 26° WNW 02:49:00 10° NNW
BREEZE-M DEB (TANK) 3.7 02:37:12 10° W 02:46:34 72° N 02:49:41 10° ENE
USA 308 3.0 02:42:41 12° SW 02:46:34 69° SE 02:50:45 10° ENE
Cosmos 2084 Rocket 3.5 02:43:24 10° SSW 02:47:11 62° SE 02:50:57 10° NE
Cosmos 1703 3.4 02:43:28 10° S 02:47:24 79° E 02:51:22 10° NNE
Lacrosse 5 2.6 02:48:35 10° SSW 02:53:26 46° SE 02:58:18 10° ENE
Cosmos 2297 3.7 02:48:20 10° NNW 02:54:06 75° WSW 02:59:49 10° SSE
IDEFIX/ARIANE 42P 3.6 02:51:58 10° N 02:56:33 31° WNW 03:01:07 10° SW
PAYLOAD A 4.3 02:52:00 10° NNE 02:56:41 63° ESE 03:01:23 10° S
Cosmos 614 Rocket 4.0 02:52:35 10° NNW 02:57:46 78° WSW 03:02:58 10° SSE
USA 215 4.2 02:51:41 10° E 02:57:58 52° NNE 03:04:17 10° NW
Cosmos 962 Rocket 4.5 02:55:28 10° N 03:01:39 83° W 03:07:46 10° S
DELTA 2 DEB (DPAF) 4.2 02:58:01 10° SSE 03:02:27 88° ENE 03:06:55 10° NNW
SL-24 DEB 4.3 03:00:00 10° S 03:04:45 89° WSW 03:09:32 10° N
Cosmos 292 Rocket 4.0 03:00:48 10° SSW 03:05:36 75° ESE 03:10:25 10° NNE
